NSAT 110

导读 | 豆包AI

NSAT 110(又称JCSAT-110)是日本于2000年10月6日发射的通信广播卫星,定位于东经110度地球同步轨道。该卫星由日本空间通信公司(JCSAT)运营,主要服务日本本土,提供广播电视传输与通信业务,搭载多组Ku波段转发器,设计寿命超过10年,支撑日本卫星电视广播与固定通信服务,是日本民用通信卫星组网的重要组成部分。

Basic Information
目录编号:
26559
目录名称:
NSAT 110
国际标识:
2000-060A
轨道中心:
EARTH
卫星名称:
NSAT 110
卫星全名:
--
卫星状态:
在轨 (已飞行9338 天)
发射日期:
2000-10-06 UTC
国别 :
日本 (JP)
星等 :
--
Orbit Information
数据来源 国际轨道数据 AOE轨道数据
星历时间 2026-05-01T06:17:42+0800
10小时前
查看轨道信息
2026-05-01T05:00:00+0800
11小时前
查看轨道信息
半长轴 42474.403km 42474.375km
偏心率 0.0006203 0.0006058
轨道倾角 6.678° 6.678°
近地点辐角 359.336° 357.919°
升交点赤经 70.745° 70.752°
平近点角 195.360° 177.506°
近地点 36069.919km 36070.507km
远地点 36122.613km 36121.969km
周期 1451.947分钟 1451.945分钟
每日圈数 0.991772 0.991773
Detailed Information
使用方式:
暂无
2D Orbit Map
3D Orbit Map
Orbit Altitude Analysis Chart
Orbit Inclination Analysis Chart
Orbit Comprehensive Analysis Chart
View Comprehensive Chart